Dewpoint
52 51 42 37 35 34 38 36 38 36 36 36 34 33 33 32 32 32 31 30 30 30 30 30 29 29 29
52 52 45 38 35 34 33 33 34 34 33 32 31 32 31 30 31 31 30 29 29 29 29 28 28 28 29
51 51 42 36 34 34 35 33 32 33 30 30 31 30 29 30 29 30 29 29 28 28 28 28 28 28 29
51 44 40 37 37 36 35 35 34 30 25 27 27 26 26 27 28 28 28 28 28 29 29 27 27 27 29
50 43 40 38 37 37 36 35 34 29 25 25 26 27 24 24 26 25 26 27 29 29 28 27 27 26 27
50 46 45 42 39 36 34 30 26 26 26 24 22 22 23 23 22 23 26 28 29 29 27 27 27 26 25
49 47 47 43 39 35 32 28 23 27 23 20 21 22 23 21 22 23 25 27 29 27 26 26 25 25 25
51 49 45 40 38 35 30 24 22 20 23 21 22 21 21 22 22 22 24 27 26 25 26 25 25 25 25
43 41 38 36 31 26 24 22 19 17 24 23 20 19 20 19 19 20 24 24 23 22 23 24 25 25 26
37 36 34 32 28 27 26 23 20 16 23 22 19 19 19 16 18 19 18 17 16 18 20 21 22 25 24
32 30 29 28 27 29 29 27 23 22 26 24 23 22 20 18 18 17 17 17 16 15 16 18 21 22 22
31 29 27 27 27 27 28 29 29 26 25 25 22 22 21 19 17 15 16 17 17 15 15 16 18 18 20
30 28 27 28 29 29 28 28 28 27 26 26 24 23 22 19 19 18 18 16 17 16 15 15 15 17 17
27 27 28 27 26 27 25 25 24 25 25 26 25 24 21 20 20 20 20 17 15 15 15 15 16 17 17
26 25 25 26 26 27 26 24 21 21 23 26 25 25 24 23 20 20 19 18 16 14 15 14 15 16 17
24 23 24 25 24 25 24 22 21 20 21 22 21 20 19 21 23 21 20 16 14 14 14 14 15 17 19
24 25 26 25 24 23 22 21 20 20 21 21 19 18 16 14 16 24 20 16 15 12 13 15 16 17 19
Wind_Speed
17 12 15 16 12 9 12 11 12 13 11 11 7 7 8 11 12 11 13 15 15 16 16 16 18 20 21
22 18 12 15 14 14 12 10 10 13 10 7 7 8 10 12 12 13 14 15 15 15 16 17 18 18 20
21 10 4 10 6 9 13 10 8 11 8 7 10 10 11 13 15 14 14 15 15 15 16 18 16 19 21
18 10 4 5 9 11 10 10 10 9 6 7 9 11 15 15 15 15 15 14 15 16 17 15 17 17 20
16 7 9 7 16 11 13 11 11 8 7 9 11 12 10 11 14 15 14 13 16 17 15 17 18 19 19
19 20 21 17 11 15 14 8 8 7 7 11 10 10 9 7 14 14 14 16 16 16 16 17 18 19 21
26 24 18 24 18 18 14 11 9 10 6 8 10 10 8 10 15 16 16 15 16 18 17 18 18 20 21
24 19 14 20 23 15 17 11 7 7 6 4 4 7 7 8 16 16 12 13 15 18 19 19 20 20 19
11 15 19 22 21 20 17 17 6 6 7 2 3 6 7 11 11 9 10 15 18 18 18 19 20 18 16
18 20 20 19 17 15 17 14 7 6 9 7 1 4 5 4 3 6 9 14 15 17 18 18 17 12 12
19 17 15 17 8 11 9 15 10 4 10 6 2 1 3 6 9 9 9 11 12 12 15 16 15 15 13
16 16 17 15 15 14 11 6 4 11 11 10 3 2 3 6 8 6 10 14 14 12 9 13 16 17 18
21 15 14 17 13 15 13 6 4 5 8 9 8 7 8 9 11 12 13 7 15 14 9 12 14 12 15
20 22 17 17 13 9 11 8 6 6 6 6 6 8 10 13 15 20 16 11 10 14 13 13 13 14 16
25 20 18 17 14 11 10 9 5 8 7 9 10 11 12 16 18 18 18 16 14 14 14 17 17 16 16
21 23 19 17 17 10 9 8 7 6 5 3 1 7 8 12 25 18 14 14 14 14 15 18 22 14 13
17 20 19 17 16 12 10 8 6 5 3 2 1 5 9 10 8 20 16 14 15 17 16 16 20 19 15
Wind_Direction
239 217 188 186 180 190 162 174 177 181 184 193 203 243 267 285 281 283 291 291 293 292 292 297 299 299 302
238 223 192 187 177 186 187 198 187 176 178 206 241 240 264 266 262 275 283 283 289 289 289 291 290 299 307
236 204 189 164 169 188 195 190 192 161 189 220 231 244 254 255 264 268 274 278 282 281 280 281 294 301 304
224 190 183 179 172 185 193 199 207 202 205 234 233 245 258 263 265 264 268 274 276 276 274 285 293 296 293
212 182 177 183 198 189 188 181 197 197 222 235 221 224 244 251 248 257 258 268 276 270 279 286 294 296 293
203 207 202 211 185 178 168 166 216 168 199 239 232 227 241 243 257 262 268 273 268 269 281 289 293 295 295
204 212 201 199 182 168 169 168 174 151 180 264 229 231 236 253 264 264 269 266 263 272 278 288 289 290 292
212 221 199 166 174 170 163 140 105 139 148 242 222 232 248 259 271 269 260 259 270 277 280 283 285 288 286
130 138 146 147 143 135 148 150 176 170 170 228 268 299 296 276 260 240 244 265 275 277 278 281 282 280 287
120 121 124 136 143 138 147 162 139 169 160 181 7 30 320 274 255 267 276 281 275 281 279 278 275 273 273
135 126 121 119 113 103 136 154 161 123 156 129 90 331 252 292 293 278 285 274 282 284 284 277 263 265 262
140 142 140 140 129 118 97 84 80 102 134 120 147 180 294 293 268 311 310 297 277 269 278 275 279 284 276
150 147 138 127 122 119 115 118 105 114 127 148 172 216 233 250 278 287 307 295 288 270 269 281 275 270 275
149 131 131 131 137 126 139 173 169 149 169 168 201 227 251 256 259 273 279 274 295 288 279 281 278 269 263
137 136 138 136 136 140 148 174 150 153 170 192 215 231 252 260 269 259 266 267 269 287 294 288 281 274 266
144 138 142 138 139 151 161 165 153 161 183 189 309 318 295 256 226 251 263 270 283 292 288 286 284 275 262
133 132 131 133 143 159 158 150 153 163 167 137 284 279 292 284 289 220 254 273 285 288 280 276 284 287 284